Regional Weather Roundup
Issued by NWS

Home | Current Version | Previous Version | Graphics & Text | Print | Product List | Glossary On
Versions: 1 2 3 4 5 6 7 8 9 10 11 12 13 14 15 16 17 18 19 20 21 22 23 24 25 26 27 28 29 30 31 32 33 34 35 36 37 38 39 40 41 42 43 44 45 46 47 48 49 50
000
ASUS44 KMEG 050000
RWRTN
TENNESSEE HOURLY STATE WEATHER ROUNDUP
NATIONAL WEATHER SERVICE MEMPHIS TN
700 PM CDT WED MAY 04 2016

TNZ002-004-019-021-049-052-054-088>092-050100-
WEST TENNESSEE

CITY           SKY/WX    TMP DP  RH WIND       PRES   REMARKS
MEMPHIS INTL   PTCLDY    74  43  32 N10G22    29.78S
NWS MEMPHIS      N/A     73 N/A N/A MISG        N/A
JACKSON        CLEAR     68  44  42 N12       29.78R
DYERSBURG      PTCLDY    68  43  40 N12G20    29.79R
UNION CITY     CLEAR     66  43  42 N9        29.79R
LEXINGTON      CLEAR     66  39  37 NW13      29.77R
$$

TNZ008-025-027-028-033-062-065-066-050100-
NORTH MIDDLE TENNESSEE

CITY           SKY/WX    TMP DP  RH WIND       PRES   REMARKS
NASHVILLE      PTCLDY    61  49  64 N7        29.76R
CLARKSVILLE    PTCLDY    62  41  46 N21       29.78R
COOKEVILLE     PTCLDY    54  52  94 CALM      29.74R
CROSSVILLE     LGT RAIN  50  45  83 W3        29.76R
$$

TNZ061-075-076-078-094-096-097-050100-
SOUTH MIDDLE TENNESSEE

CITY           SKY/WX    TMP DP  RH WIND       PRES   REMARKS
TULLAHOMA      MOCLDY    54  52  94 N9        29.77R
WINCHESTER     PTCLDY    57  54  88 VRB3      29.74R
MCMINNVILLE    MOCLDY    54  50  87 N5        29.75R
COLUMBIA       MOCLDY   N/A N/A N/A CALM      29.76R
SHELBYVILLE    CLOUDY    57  52  82 NW8       29.77R
$$

TNZ017-018-042-046-047-050100-
NORTHEAST TENNESSEE

CITY           SKY/WX    TMP DP  RH WIND       PRES   REMARKS
TRI CITIES     CLOUDY    55  44  66 W8        29.69R
$$

TNZ012-013-036-069-073-074-050100-
CENTRAL EAST TENNESSEE

CITY           SKY/WX    TMP DP  RH WIND       PRES   REMARKS
KNOXVILLE      CLOUDY    54  50  86 S7        29.72S
OAK RIDGE      HVY RAIN  54  49  83 NW9       29.77R
GATLINBURG     MOCLDY    54  48  82 S3        29.72R
$$

TNZ083-085-099-050100-
SOUTHEAST TENNESSEE

CITY           SKY/WX    TMP DP  RH WIND       PRES   REMARKS
CHATTANOOGA    MOCLDY    57  53  86 S5        29.73F
$$

SKY/WX REPORTED AS FAIR MEANS FEW OR NO CLOUDS BELOW
12 THOUSAND FEET.




USA.gov is the U.S. government's official web portal to all federal, state and local government web resources and services.